• In United Kingdom
  • List of Countries
  • For 7 days
  • Water Temperature
  • Satellite Maps
  • Weather Map
  • Weather Widgets
  • user-avatar
    Login

    Hourly Weather Orange Walk

    Today, 18 February, Sunday

    Time Temperature Precipitation Wind Pressure Humidity
    00:00 +23°C° 0 mm 2 mps 761 mmHg 95%
    01:00 +23°C° 0.3 mm 2 mps 761 mmHg 96%
    02:00 +23°C° 0.3 mm 2 mps 761 mmHg 96%
    03:00 +23°C° 0.3 mm 2 mps 760 mmHg 97%
    04:00 +23°C° 1.2 mm 2 mps 761 mmHg 97%
    05:00 +23°C° 1.2 mm 2 mps 761 mmHg 97%
    06:00 +23°C° 0 mm 2 mps 761 mmHg 98%
    07:00 +24°C° 1.2 mm 2 mps 761 mmHg 95%
    08:00 +25°C° 1.2 mm 3 mps 761 mmHg 92%
    09:00 +26°C° 1.2 mm 3 mps 761 mmHg 89%
    10:00 +27°C° 1 mm 3 mps 761 mmHg 87%
    11:00 +27°C° 1 mm 3 mps 761 mmHg 84%
    12:00 +28°C° 1 mm 4 mps 761 mmHg 81%
    13:00 +28°C° 0.7 mm 4 mps 761 mmHg 80%
    14:00 +28°C° 0.7 mm 3 mps 760 mmHg 79%
    15:00 +28°C° 0.7 mm 3 mps 760 mmHg 77%
    16:00 +27°C° 0.2 mm 3 mps 760 mmHg 81%
    17:00 +26°C° 0.2 mm 3 mps 760 mmHg 84%
    18:00 +25°C° 0.2 mm 2 mps 760 mmHg 87%
    19:00 +25°C° 0 mm 2 mps 760 mmHg 90%
    20:00 +24°C° 0 mm 2 mps 760 mmHg 92%
    21:00 +24°C° 0 mm 2 mps 761 mmHg 94%
    22:00 +23°C° 0.2 mm 2 mps 761 mmHg 95%
    23:00 +23°C° 0.2 mm 2 mps 761 mmHg 96%

    Tomorrow, 19 February, Monday

    Time Temperature Precipitation Wind Pressure Humidity
    00:00 +23°C° 0.2 mm 2 mps 761 mmHg 96%
    01:00 +23°C° 0.5 mm 2 mps 760 mmHg 97%
    02:00 +23°C° 0.5 mm 2 mps 760 mmHg 97%
    03:00 +23°C° 0.5 mm 2 mps 759 mmHg 97%
    04:00 +23°C° 0.3 mm 2 mps 760 mmHg 97%
    05:00 +23°C° 0.3 mm 2 mps 760 mmHg 97%
    06:00 +23°C° 0.3 mm 2 mps 760 mmHg 97%
    07:00 +24°C° 0.1 mm 2 mps 760 mmHg 92%
    08:00 +26°C° 0.1 mm 3 mps 761 mmHg 87%
    09:00 +28°C° 0.1 mm 3 mps 761 mmHg 81%
    10:00 +29°C° 0.2 mm 3 mps 761 mmHg 75%
    11:00 +30°C° 0.2 mm 4 mps 761 mmHg 68%
    12:00 +32°C° 0.2 mm 4 mps 760 mmHg 61%
    13:00 +32°C° 0.2 mm 4 mps 760 mmHg 61%
    14:00 +32°C° 0.2 mm 4 mps 759 mmHg 62%
    15:00 +30°C° 0.2 mm 4 mps 758 mmHg 63%
    16:00 +29°C° 0.1 mm 3 mps 758 mmHg 69%
    17:00 +27°C° 0.1 mm 3 mps 758 mmHg 76%
    18:00 +26°C° 0.1 mm 2 mps 759 mmHg 83%
    19:00 +25°C° 0 mm 2 mps 759 mmHg 86%
    20:00 +25°C° 0 mm 2 mps 759 mmHg 89%
    21:00 +24°C° 0 mm 2 mps 760 mmHg 92%
    22:00 +24°C° 0.1 mm 2 mps 760 mmHg 93%
    23:00 +24°C° 0.1 mm 2 mps 760 mmHg 94%

    Day after tomorrow, 20 February, Tuesday

    Time Temperature Precipitation Wind Pressure Humidity
    00:00 +24°C° 0.1 mm 2 mps 760 mmHg 95%
    01:00 +24°C° 0 mm 2 mps 759 mmHg 95%
    02:00 +24°C° 0 mm 2 mps 759 mmHg 95%
    03:00 +24°C° 0 mm 2 mps 759 mmHg 95%
    04:00 +24°C° 0 mm 2 mps 759 mmHg 95%
    05:00 +24°C° 0 mm 2 mps 759 mmHg 94%
    06:00 +24°C° 0 mm 2 mps 759 mmHg 94%
    07:00 +26°C° 0 mm 3 mps 760 mmHg 85%
    08:00 +27°C° 0 mm 4 mps 760 mmHg 76%
    09:00 +29°C° 0 mm 4 mps 761 mmHg 66%
    10:00 +30°C° 0 mm 5 mps 761 mmHg 62%
    11:00 +32°C° 0 mm 5 mps 761 mmHg 57%
    12:00 +33°C° 0 mm 5 mps 760 mmHg 52%
    13:00 +33°C° 0.2 mm 5 mps 760 mmHg 55%
    14:00 +32°C° 0.2 mm 5 mps 759 mmHg 58%
    15:00 +32°C° 0.2 mm 4 mps 758 mmHg 61%
    16:00 +29°C° 0.2 mm 4 mps 759 mmHg 69%
    17:00 +28°C° 0.2 mm 4 mps 759 mmHg 77%
    18:00 +26°C° 0.2 mm 4 mps 760 mmHg 84%
    19:00 +26°C° 0.2 mm 3 mps 760 mmHg 87%
    20:00 +25°C° 0.2 mm 3 mps 761 mmHg 90%
    21:00 +24°C° 0.2 mm 3 mps 761 mmHg 93%
    22:00 +24°C° 0.1 mm 3 mps 761 mmHg 93%
    23:00 +24°C° 0.1 mm 3 mps 761 mmHg 93%

    21 February, Wednesday

    Time Temperature Precipitation Wind Pressure Humidity
    00:00 +24°C° 0.1 mm 3 mps 761 mmHg 93%
    01:00 +24°C° 0 mm 3 mps 760 mmHg 93%
    02:00 +24°C° 0 mm 3 mps 760 mmHg 93%
    03:00 +24°C° 0 mm 3 mps 760 mmHg 93%
    04:00 +24°C° 0 mm 3 mps 760 mmHg 92%
    05:00 +24°C° 0 mm 3 mps 760 mmHg 92%
    06:00 +25°C° 0 mm 3 mps 760 mmHg 91%
    07:00 +26°C° 0.1 mm 3 mps 761 mmHg 83%
    08:00 +28°C° 0.1 mm 4 mps 761 mmHg 75%
    09:00 +29°C° 0.1 mm 5 mps 762 mmHg 67%
    10:00 +30°C° 0.5 mm 5 mps 762 mmHg 68%
    11:00 +30°C° 0.5 mm 5 mps 762 mmHg 69%
    12:00 +30°C° 0.5 mm 5 mps 762 mmHg 70%
    13:00 +29°C° 1 mm 5 mps 761 mmHg 74%
    14:00 +29°C° 1 mm 4 mps 760 mmHg 78%
    15:00 +28°C° 1 mm 4 mps 760 mmHg 82%
    16:00 +27°C° 0.4 mm 4 mps 760 mmHg 85%
    17:00 +26°C° 0.4 mm 3 mps 760 mmHg 88%
    18:00 +25°C° 0.4 mm 2 mps 761 mmHg 91%
    19:00 +25°C° 0 mm 2 mps 761 mmHg 93%
    20:00 +24°C° 0 mm 2 mps 762 mmHg 94%
    21:00 +24°C° 0 mm 2 mps 762 mmHg 95%
    22:00 +24°C° 0.1 mm 2 mps 762 mmHg 96%
    23:00 +24°C° 0.1 mm 2 mps 762 mmHg 96%

    22 February, Thursday

    Time Temperature Precipitation Wind Pressure Humidity
    00:00 +24°C° 0.1 mm 2 mps 762 mmHg 97%
    01:00 +24°C° 0.1 mm 2 mps 761 mmHg 97%
    02:00 +24°C° 0.1 mm 2 mps 761 mmHg 97%
    03:00 +24°C° 0.1 mm 2 mps 761 mmHg 97%
    04:00 +24°C° 0.1 mm 2 mps 761 mmHg 97%
    05:00 +23°C° 0.1 mm 2 mps 761 mmHg 97%
    06:00 +23°C° 0.1 mm 2 mps 762 mmHg 97%
    07:00 +25°C° 0.2 mm 3 mps 762 mmHg 92%
    08:00 +26°C° 0.2 mm 3 mps 763 mmHg 88%
    09:00 +28°C° 0.2 mm 3 mps 763 mmHg 83%
    10:00 +28°C° 0.5 mm 3 mps 763 mmHg 80%
    11:00 +28°C° 0.5 mm 3 mps 763 mmHg 77%
    12:00 +28°C° 0.5 mm 3 mps 762 mmHg 75%
    13:00 +29°C° 0.2 mm 3 mps 762 mmHg 70%
    14:00 +30°C° 0.2 mm 4 mps 761 mmHg 66%
    15:00 +32°C° 0.2 mm 4 mps 760 mmHg 61%
    16:00 +29°C° 0 mm 3 mps 761 mmHg 67%
    17:00 +28°C° 0 mm 3 mps 761 mmHg 73%
    18:00 +26°C° 0 mm 2 mps 761 mmHg 80%
    19:00 +25°C° 0 mm 2 mps 761 mmHg 85%
    20:00 +25°C° 0 mm 2 mps 762 mmHg 90%
    21:00 +24°C° 0 mm 2 mps 762 mmHg 95%
    22:00 +24°C° 0 mm 2 mps 762 mmHg 96%
    23:00 +23°C° 0 mm 2 mps 762 mmHg 96%

    23 February, Friday

    Time Temperature Precipitation Wind Pressure Humidity
    00:00 +23°C° 0 mm 2 mps 762 mmHg 97%
    01:00 +23°C° 0 mm 2 mps 761 mmHg 97%
    02:00 +23°C° 0 mm 2 mps 761 mmHg 98%
    03:00 +23°C° 0 mm 1 mps 760 mmHg 98%
    04:00 +23°C° 0 mm 1 mps 761 mmHg 98%
    05:00 +23°C° 0 mm 1 mps 761 mmHg 98%
    06:00 +23°C° 0 mm 1 mps 761 mmHg 98%
    07:00 +25°C° 0.2 mm 2 mps 761 mmHg 92%
    08:00 +26°C° 0.2 mm 2 mps 762 mmHg 86%
    09:00 +28°C° 0.2 mm 3 mps 762 mmHg 80%
    10:00 +28°C° 0.6 mm 3 mps 762 mmHg 77%
    11:00 +29°C° 0.6 mm 3 mps 761 mmHg 74%
    12:00 +30°C° 0.6 mm 3 mps 761 mmHg 70%
    13:00 +29°C° 0.9 mm 3 mps 760 mmHg 74%
    14:00 +29°C° 0.9 mm 3 mps 760 mmHg 77%
    15:00 +28°C° 0.9 mm 3 mps 759 mmHg 81%
    16:00 +27°C° 0.2 mm 3 mps 759 mmHg 84%
    17:00 +26°C° 0.2 mm 2 mps 759 mmHg 88%
    18:00 +25°C° 0.2 mm 2 mps 759 mmHg 92%
    19:00 +25°C° 0 mm 2 mps 760 mmHg 93%
    20:00 +24°C° 0 mm 2 mps 760 mmHg 95%
    21:00 +24°C° 0 mm 2 mps 760 mmHg 97%
    22:00 +24°C° 0 mm 2 mps 760 mmHg 97%
    23:00 +23°C° 0 mm 2 mps 760 mmHg 97%
    Show more